Location: Alphen
(52.1351°N, 4.6549°E)
Time: 01:00:22
(UTC+00:00)

CZ-4B DEB - Pass Details

Date: 27 January 2021
Orbit: 841 x 861 km, 99.1° (Epoch: 26 February)

Event Time Altitude Azimuth Distance (km) Brightness Sun altitude
Rises 06:19:19 0° 14° (NNE) 3,454 7.4 -10.7°
Reaches altitude 10° 06:21:43 10° 13° (NNE) 2,513 6.6 -10.3°
Maximum altitude 06:27:16 70° 291° (WNW) 916 4.2 -9.5°
Drops below altitude 10° 06:32:46 10° 208° (SSW) 2,492 6.6 -8.7°
Sets 06:35:08 0° 206° (SSW) 3,422 7.3 -8.4°
